Location: Boca do Mato
(22.9085°S, 43.2930°W)
Time: 22:35:33
(UTC+00:00)

Okean O Rocket - Pass Details

Date: 14 July 2020
Orbit: 623 x 644 km, 98.2° (Epoch: 10 August)

Event Time Altitude Azimuth Distance (km) Brightness Sun altitude
Rises 08:32:21 0° 4° (N) 2,917 5.3 -14.1°
Reaches altitude 10° 08:34:33 10° 0° (N) 2,019 4.4 -13.6°
Maximum altitude 08:38:53 58° 281° (W) 750 1.7 -12.6°
Drops below altitude 10° 08:43:18 10° 201° (SSW) 2,055 3.9 -11.7°
Sets 08:45:34 0° 197° (SSW) 2,973 4.7 -11.2°
Enters shadow 08:45:36 - 197° (SSW) 2,989 4.7 -11.2°
